Weather in Volkhonshchino

Russia / Penza Oblast     52°44′59″N   45°11′53″E
temp.,
°C
wind,
m/s
gust,
m/s
humid.,
%
clouds,
%
prec.,
mm/h
press.,
hPa
HPBL,
m
28 february, sun
sun2800:00−14nnw5109299 0.0 1010437
03:00−16nw5119374 0.0 1012334
06:00−18nw48962 0.0 1013207
09:00−16nnw589431 0.0 1013329
12:00−13nw579086 0.0 1014472
15:00−12nw578993 0.0 1015521
18:00−14nnw3495100 0.0 101682
21:00−16nnw339698 0.0 101942
1 march, mon
mon100:00−17nnw339561 0.0 102134
03:00−18nnw239530 0.0 102226
06:00−19nnw23960 0.0 102321
09:00−16nw23940 0.0 1025123
12:00−12wnw348840 0.0 1025297
15:00−11w359243 0.0 1025307
18:00−13w349645 0.0 102462
21:00−13wsw479738 0.0 1023118
2 march, tue
tue200:00−8wsw61295100 0.1 1020319
03:00−5wsw71593100 0.1 1016552
06:00−4wsw81694100 0.7 1012573
09:00−2wsw91595100 1.7 1008713
12:000wsw81498100 1.6 1005803
15:000wnw71198100 2.6 1004665
18:00−2nw4109399 0.6 1004281
21:00−3wnw5119296 0.6 1006325
3 march, wed
wed300:00−4wnw5119599 0.1 1006344
03:00−4nw6129496 0.3 1006465
06:00−5nw5119592 0.1 1007401
09:00−5nw6119393 0.2 1008589
12:00−3nw71091100 0.1 1009782
15:00−4nw71191100 0.3 1011836
18:00−5nw61294100 0.3 1012608
21:00−7nw61392100 0.4 1015561
4 march, thu
thu400:00−9nw5119499 0.0 1016272
03:00−12wnw469752 0.1 101895
06:00−12w479646 0.0 1018106
09:00−8wsw5109649 0.0 1018286
12:00−4wsw7129192 0.0 1016574
15:00−2wsw8148795 0.0 1014743
18:00−3sw81689100 0.0 1012571
21:00−3wsw8188699 0.0 1011606